Location: Arrodets-la-Barthe
(43.0306°N, 0.2829°E)
Time: 19:24:38
(UTC+00:00)

Cosmos 2344 - Pass Details

Date: 24 October 2021
Orbit: 1233 x 3009 km, 63.3° (Epoch: 02 December)

Event Time Altitude Azimuth Distance (km) Brightness Sun altitude
Rises 18:39:08 0° 323° (NW) 4,535 7.0 -18.4°
Reaches altitude 10° 18:41:45 10° 325° (NW) 3,693 6.5 -18.9°
Maximum altitude 18:51:03 78° 52° (NE) 1,921 4.3 -20.6°
Enters shadow 19:04:08 10° 140° (SE) 5,052 6.3 -23.0°
